Terminal Aerodrome Forecast
Issued by NWS

Home | Current Version | Previous Version | Text Only | Print | Product List | Glossary On
Versions: 1 2 3 4 5 6 7 8 9 10 11 12 13 14 15 16 17 18 19 20 21 22 23 24 25 26 27 28 29 30 31 32 33
000
FTUS43 KDMX 061422 AAA
TAFMCW
TAF AMD
KMCW 061422Z 0614/0712 20012KT 6SM BR VCSH BKN025 OVC090
     FM061500 23013KT 5SM RA OVC025
     FM061900 31014G19KT P6SM BKN035
     FM070100 34008KT P6SM SCT050=

USA.gov is the U.S. government's official web portal to all federal, state and local government web resources and services.